Terminal Aerodrome Forecast
Issued by NWS Boston, MA

Home | Current Version | Previous Version | Text Only | Print | Product List | Glossary On
Versions: 1 2 3 4 5 6 7 8 9 10 11 12 13 14 15 16 17 18 19 20 21 22 23 24 25 26 27 28 29 30 31 32 33 34 35 36 37 38
000
FTUS41 KBOX 290523
TAFBOS
TAF
KBOS 290523Z 2906/3012 32010KT P6SM SKC
     FM291400 05008KT P6SM FEW060
     FM292000 12008KT P6SM FEW060
     FM300100 17007KT P6SM FEW250
     FM300600 20004KT P6SM FEW250=

USA.gov is the U.S. government's official web portal to all federal, state and local government web resources and services.